Darlington, SC

2:22 AM EST on December 09, 2016 (GMT -0500)
Darlington County Jetport

Weather History for KUDG - January, 2014

Change the Weather History Date:

Monday, January 13, 2014

  Actual Average (KFLO) Record (KFLO)
Temperature  
Mean Temperature 48 °F -  
Max Temperature 62 °F 52 °F 78 °F (2005)
Min Temperature 33 °F 33 °F 11 °F (1981)
Degree Days  
Heating Degree Days 18    
Moisture  
Dew Point 37 °F    
Average Humidity 68    
Maximum Humidity 87    
Minimum Humidity 39    
Precipitation  
Precipitation 0.00 in - - ()
Sea Level Pressure  
Sea Level Pressure 30.07 in    
Wind  
Wind Speed 4 mph (South)    
Max Wind Speed 13 mph    
Max Gust Speed 18 mph    
Visibility 10 miles    
Events      
Averages and records for this station are not official NWS values.
T = Trace of Precipitation, MM = Missing Value Source: NWS Daily Summary

Daily Weather History Graph

Daily Weather History Graph

Search for Another Location

Airport or City:

Trip Planner

Search our weather history database for the weather conditions in past years. The results will help you decide how hot, cold, wet, or windy it might be!

Date:

Astronomy

Jan. 13, 2014 Rise Set
Actual Time 7:26 AM EST 5:30 PM EST
Civil Twilight 6:58 AM EST 5:58 PM EST
Nautical Twilight 6:27 AM EST 6:28 PM EST
Astronomical Twilight 5:57 AM EST 6:59 PM EST
Moon 3:43 PM EST (1/13) 5:14 AM EST (1/13)
Length of Visible Light 10h 59m
Length of Day
10h 04m
Waxing Gibbous, 95% of the Moon is Illuminated
Jan 13
Waxing Gibbous
Jan 15
Full
Jan 24
Last Quarter
Jan 30
New
Feb 6
First Quarter

Hourly Weather History & Observations

Time (EST) Temp. Windchill Dew Point Humidity Pressure Visibility Wind Dir Wind Speed Gust Speed Precip Events Conditions
12:15 AM 37.4 °F - 33.8 °F 87% 30.16 in 10.0 mi Calm Calm - N/A   Clear
12:35 AM 37.4 °F - 33.8 °F 87% 30.15 in 10.0 mi Calm Calm - N/A   Clear
12:55 AM 37.4 °F - 33.8 °F 87% 30.15 in 10.0 mi Calm Calm - N/A   Clear
1:15 AM 37.4 °F - 32.0 °F 81% 30.15 in 10.0 mi Calm Calm - N/A   Clear
1:35 AM 37.4 °F - 33.8 °F 87% 30.15 in 10.0 mi Calm Calm - N/A   Clear
1:55 AM 35.6 °F - 32.0 °F 87% 30.15 in 10.0 mi Calm Calm - N/A   Clear
2:15 AM 35.6 °F - 32.0 °F 87% 30.14 in 10.0 mi Calm Calm - N/A   Clear
2:35 AM 35.6 °F - 32.0 °F 87% 30.14 in 10.0 mi Calm Calm - N/A   Clear
2:55 AM 35.6 °F - 30.2 °F 81% 30.15 in 10.0 mi Calm Calm - N/A   Clear
3:15 AM 35.6 °F 32.8 °F 32.0 °F 87% 30.15 in 10.0 mi SW 3.5 mph - N/A   Clear
3:35 AM 35.6 °F 32.8 °F 30.2 °F 81% 30.15 in 10.0 mi SW 3.5 mph - N/A   Clear
3:55 AM 35.6 °F 32.8 °F 30.2 °F 81% 30.15 in 10.0 mi SSW 3.5 mph - N/A   Clear
4:15 AM 35.6 °F 32.8 °F 30.2 °F 81% 30.14 in 10.0 mi SSW 3.5 mph - N/A   Clear
4:35 AM 35.6 °F 32.8 °F 30.2 °F 81% 30.14 in 10.0 mi SSW 3.5 mph - N/A   Clear
4:55 AM 35.6 °F 31.7 °F 30.2 °F 81% 30.15 in 10.0 mi SW 4.6 mph - N/A   Clear
5:15 AM 33.8 °F - 30.2 °F 87% 30.14 in 10.0 mi Calm Calm - N/A   Clear
5:35 AM 33.8 °F 30.8 °F 30.2 °F 87% 30.14 in 10.0 mi SW 3.5 mph - N/A   Clear
5:55 AM 33.8 °F 29.6 °F 30.2 °F 87% 30.15 in 10.0 mi SSW 4.6 mph - N/A   Clear
6:15 AM 33.8 °F 29.6 °F 30.2 °F 87% 30.16 in 10.0 mi SW 4.6 mph - N/A   Clear
6:35 AM 33.8 °F 28.6 °F 30.2 °F 87% 30.15 in 10.0 mi SW 5.8 mph - N/A   Clear
6:55 AM 33.8 °F 29.6 °F 28.4 °F 81% 30.15 in 10.0 mi SSW 4.6 mph - N/A   Clear
7:15 AM 33.8 °F 29.6 °F 30.2 °F 87% 30.16 in 10.0 mi SSW 4.6 mph - N/A   Clear
7:35 AM 33.8 °F 29.6 °F 30.2 °F 87% 30.16 in 10.0 mi SSW 4.6 mph - N/A   Clear
7:55 AM 35.6 °F - 30.2 °F 81% 30.16 in 10.0 mi Calm Calm - N/A   Clear
8:15 AM 37.4 °F 34.9 °F 33.8 °F 87% 30.15 in 10.0 mi SSW 3.5 mph - N/A   Clear
8:35 AM 39.2 °F - 33.8 °F 81% 30.15 in 10.0 mi Calm Calm - N/A   Clear
8:55 AM 41.0 °F 39.0 °F 35.6 °F 81% 30.15 in 10.0 mi South 3.5 mph - N/A   Clear
9:15 AM 44.6 °F 41.4 °F 37.4 °F 76% 30.15 in 10.0 mi SSW 5.8 mph - N/A   Clear
9:35 AM 46.4 °F 45.2 °F 37.4 °F 71% 30.15 in 10.0 mi SSW 3.5 mph - N/A   Clear
9:55 AM 48.2 °F - 37.4 °F 66% 30.16 in 10.0 mi SSW 5.8 mph - N/A   Clear
10:15 AM 50.0 °F - 37.4 °F 62% 30.16 in 10.0 mi SSW 4.6 mph - N/A   Clear
10:35 AM 51.8 °F - 37.4 °F 58% 30.15 in 10.0 mi SSW 9.2 mph - N/A   Clear
10:55 AM 55.4 °F - 39.2 °F 54% 30.14 in 10.0 mi South 10.4 mph - N/A   Clear
11:15 AM 55.4 °F - 39.2 °F 54% 30.13 in 10.0 mi SSW 10.4 mph - N/A   Clear
11:35 AM 57.2 °F - 39.2 °F 51% 30.12 in 10.0 mi South 10.4 mph - N/A   Clear
11:55 AM 59.0 °F - 39.2 °F 48% 30.11 in 10.0 mi SSW 12.7 mph - N/A   Clear
12:15 PM 60.8 °F - 37.4 °F 42% 30.10 in 10.0 mi South 12.7 mph - N/A   Clear
12:35 PM 60.8 °F - 37.4 °F 42% 30.09 in 10.0 mi South 12.7 mph - N/A   Clear
12:55 PM 60.8 °F - 37.4 °F 42% 30.08 in 10.0 mi SSW 12.7 mph 18.4 mph N/A   Clear
1:15 PM 60.8 °F - 37.4 °F 42% 30.06 in 10.0 mi South 12.7 mph - N/A   Clear
1:35 PM 60.8 °F - 37.4 °F 42% 30.06 in 10.0 mi South 12.7 mph - N/A   Clear
1:55 PM 60.8 °F - 37.4 °F 42% 30.04 in 10.0 mi SSW 12.7 mph - N/A   Clear
2:15 PM 60.8 °F - 37.4 °F 42% 30.04 in 10.0 mi SSW 10.4 mph - N/A   Clear
2:35 PM 60.8 °F - 37.4 °F 42% 30.03 in 10.0 mi South 10.4 mph - N/A   Clear
2:55 PM 62.6 °F - 37.4 °F 39% 30.02 in 10.0 mi SSW 9.2 mph 16.1 mph N/A   Clear
3:15 PM 62.6 °F - 39.2 °F 42% 30.02 in 10.0 mi South 10.4 mph - N/A   Clear
3:35 PM 62.6 °F - 39.2 °F 42% 30.01 in 10.0 mi South 12.7 mph 16.1 mph N/A   Clear
3:55 PM 60.8 °F - 39.2 °F 45% 30.01 in 10.0 mi South 9.2 mph - N/A   Partly Cloudy
4:15 PM 60.8 °F - 39.2 °F 45% 30.00 in 10.0 mi South 8.1 mph - N/A   Clear
4:35 PM 60.8 °F - 39.2 °F 45% 30.00 in 10.0 mi South 8.1 mph - N/A   Clear
4:55 PM 59.0 °F - 39.2 °F 48% 29.99 in 10.0 mi SSE 5.8 mph - N/A   Clear
5:15 PM 57.2 °F - 39.2 °F 51% 29.98 in 10.0 mi SSE 3.5 mph - N/A   Mostly Cloudy
5:35 PM 57.2 °F - 39.2 °F 51% 29.99 in 10.0 mi Calm Calm - N/A   Overcast
5:55 PM 55.4 °F - 42.8 °F 63% 29.99 in 10.0 mi Calm Calm - N/A   Overcast
6:15 PM 55.4 °F - 42.8 °F 63% 29.98 in 10.0 mi Calm Calm - N/A   Overcast
6:35 PM 53.6 °F - 42.8 °F 67% 29.97 in 10.0 mi Calm Calm - N/A   Mostly Cloudy
6:55 PM 51.8 °F - 42.8 °F 71% 29.98 in 10.0 mi Calm Calm - N/A   Mostly Cloudy
7:15 PM 51.8 °F - 42.8 °F 71% 29.98 in 10.0 mi Calm Calm - N/A   Scattered Clouds
7:35 PM 51.8 °F - 42.8 °F 71% 29.98 in 10.0 mi Calm Calm - N/A   Scattered Clouds
7:55 PM 51.8 °F - 42.8 °F 71% 29.97 in 10.0 mi East 3.5 mph - N/A   Scattered Clouds
8:15 PM 51.8 °F - 42.8 °F 71% 29.98 in 10.0 mi Calm Calm - N/A   Mostly Cloudy
8:35 PM 51.8 °F - 42.8 °F 71% 29.98 in 10.0 mi SE 3.5 mph - N/A   Overcast
8:55 PM 51.8 °F - 42.8 °F 71% 29.98 in 10.0 mi SE 4.6 mph - N/A   Mostly Cloudy
9:15 PM 53.6 °F - 42.8 °F 67% 29.98 in 10.0 mi SSE 5.8 mph - N/A   Overcast
9:35 PM 53.6 °F - 44.6 °F 72% 29.98 in 10.0 mi South 8.1 mph - N/A   Partly Cloudy
9:55 PM 53.6 °F - 44.6 °F 72% 29.97 in 10.0 mi SSE 8.1 mph - N/A   Clear
10:15 PM 53.6 °F - 44.6 °F 72% 29.98 in 10.0 mi South 6.9 mph - N/A   Clear
10:35 PM 53.6 °F - 44.6 °F 72% 29.96 in 10.0 mi SSE 5.8 mph - N/A   Clear
10:55 PM 53.6 °F - 44.6 °F 72% 29.96 in 10.0 mi SSE 4.6 mph - N/A   Partly Cloudy
11:15 PM 53.6 °F - 44.6 °F 72% 29.95 in 10.0 mi South 3.5 mph - N/A   Mostly Cloudy
11:35 PM 53.6 °F - 46.4 °F 77% 29.95 in 10.0 mi SSE 5.8 mph - N/A   Overcast
11:55 PM 51.8 °F - 46.4 °F 82% 29.94 in 10.0 mi South 5.8 mph - N/A   Overcast